When you browse on this site, cookies collect data to enhance your experience and personalize the content and advertising you see.
Visit our Privacy Policy to learn more. By continuing to use the site, you agree to this use of cookies and data.
  • In Czech Republic
  • List of Countries
  • For 7 days
  • Water Temperature
  • Satellite Maps
  • Weather Map
  • Weather Widgets
  • user-avatar
    Login

    Hourly Weather Yeghegnadzor

    Today, 25 May, Saturday

    Time Temperature Precipitation Wind Pressure Humidity
    00:00 +17°C° 0 mm 2 mps 654 mmHg 54%
    01:00 +16°C° 0 mm 2 mps 654 mmHg 54%
    02:00 +16°C° 0 mm 2 mps 654 mmHg 54%
    03:00 +16°C° 0 mm 2 mps 653 mmHg 57%
    04:00 +17°C° 0.1 mm 2 mps 654 mmHg 56%
    05:00 +18°C° 0.1 mm 2 mps 654 mmHg 56%
    06:00 +18°C° 0.1 mm 2 mps 654 mmHg 55%
    07:00 +20°C° 0 mm 3 mps 655 mmHg 50%
    08:00 +24°C° 0 mm 3 mps 655 mmHg 44%
    09:00 +26°C° 0 mm 3 mps 655 mmHg 38%
    10:00 +27°C° 0 mm 4 mps 655 mmHg 35%
    11:00 +28°C° 0 mm 5 mps 655 mmHg 32%
    12:00 +30°C° 0 mm 6 mps 655 mmHg 29%
    13:00 +30°C° 0 mm 7 mps 655 mmHg 28%
    14:00 +31°C° 0 mm 8 mps 655 mmHg 26%
    15:00 +31°C° 0 mm 9 mps 654 mmHg 25%
    16:00 +28°C° 0.1 mm 8 mps 654 mmHg 28%
    17:00 +27°C° 0.1 mm 6 mps 654 mmHg 31%
    18:00 +26°C° 0.1 mm 5 mps 653 mmHg 34%
    19:00 +23°C° 0.4 mm 4 mps 653 mmHg 39%
    20:00 +20°C° 0.4 mm 3 mps 652 mmHg 44%
    21:00 +18°C° 0.4 mm 2 mps 652 mmHg 50%
    22:00 +17°C° 0 mm 2 mps 652 mmHg 50%
    23:00 +17°C° 0 mm 3 mps 652 mmHg 50%

    Tomorrow, 26 May, Sunday

    Time Temperature Precipitation Wind Pressure Humidity
    00:00 +17°C° 0 mm 3 mps 652 mmHg 50%
    01:00 +17°C° 0 mm 3 mps 652 mmHg 51%
    02:00 +16°C° 0 mm 3 mps 652 mmHg 52%
    03:00 +16°C° 0 mm 3 mps 652 mmHg 53%
    04:00 +17°C° 0 mm 3 mps 652 mmHg 52%
    05:00 +17°C° 0 mm 3 mps 652 mmHg 51%
    06:00 +18°C° 0 mm 3 mps 652 mmHg 50%
    07:00 +20°C° 0 mm 3 mps 653 mmHg 45%
    08:00 +22°C° 0 mm 3 mps 653 mmHg 40%
    09:00 +25°C° 0 mm 3 mps 653 mmHg 35%
    10:00 +26°C° 0 mm 4 mps 653 mmHg 33%
    11:00 +27°C° 0 mm 5 mps 653 mmHg 31%
    12:00 +28°C° 0 mm 5 mps 653 mmHg 29%
    13:00 +28°C° 0 mm 5 mps 653 mmHg 29%
    14:00 +28°C° 0 mm 5 mps 652 mmHg 29%
    15:00 +28°C° 0 mm 5 mps 652 mmHg 29%
    16:00 +28°C° 0 mm 4 mps 652 mmHg 30%
    17:00 +27°C° 0 mm 4 mps 652 mmHg 31%
    18:00 +26°C° 0 mm 3 mps 652 mmHg 32%
    19:00 +22°C° 0 mm 3 mps 652 mmHg 35%
    20:00 +20°C° 0 mm 2 mps 652 mmHg 38%
    21:00 +18°C° 0 mm 1 mps 652 mmHg 41%
    22:00 +16°C° 0 mm 2 mps 652 mmHg 47%
    23:00 +16°C° 0 mm 3 mps 653 mmHg 54%

    Day after tomorrow, 27 May, Monday

    Time Temperature Precipitation Wind Pressure Humidity
    00:00 +14°C° 0 mm 3 mps 653 mmHg 60%
    01:00 +14°C° 0 mm 3 mps 653 mmHg 62%
    02:00 +14°C° 0 mm 2 mps 653 mmHg 64%
    03:00 +14°C° 0 mm 2 mps 652 mmHg 67%
    04:00 +14°C° 0 mm 2 mps 653 mmHg 63%
    05:00 +15°C° 0 mm 1 mps 653 mmHg 59%
    06:00 +16°C° 0 mm 1 mps 654 mmHg 55%
    07:00 +19°C° 0 mm 1 mps 654 mmHg 47%
    08:00 +19°C° 0 mm 2 mps 655 mmHg 39%
    09:00 +21°C° 0 mm 2 mps 655 mmHg 31%
    10:00 +22°C° 0 mm 3 mps 655 mmHg 28%
    11:00 +24°C° 0 mm 3 mps 655 mmHg 26%
    12:00 +25°C° 0 mm 3 mps 655 mmHg 23%
    13:00 +26°C° 0 mm 3 mps 655 mmHg 22%
    14:00 +26°C° 0 mm 4 mps 655 mmHg 22%
    15:00 +26°C° 0 mm 4 mps 655 mmHg 21%
    16:00 +25°C° 0 mm 3 mps 655 mmHg 24%
    17:00 +25°C° 0 mm 3 mps 655 mmHg 27%
    18:00 +24°C° 0 mm 3 mps 655 mmHg 31%
    19:00 +21°C° 0.1 mm 2 mps 655 mmHg 38%
    20:00 +18°C° 0.1 mm 2 mps 655 mmHg 45%
    21:00 +16°C° 0.1 mm 2 mps 655 mmHg 52%
    22:00 +15°C° 0 mm 2 mps 655 mmHg 55%
    23:00 +15°C° 0 mm 2 mps 655 mmHg 57%

    28 May, Tuesday

    Time Temperature Precipitation Wind Pressure Humidity
    00:00 +14°C° 0 mm 2 mps 655 mmHg 60%
    01:00 +14°C° 0 mm 2 mps 655 mmHg 61%
    02:00 +14°C° 0 mm 2 mps 655 mmHg 63%
    03:00 +14°C° 0 mm 2 mps 655 mmHg 64%
    04:00 +14°C° 0 mm 2 mps 655 mmHg 63%
    05:00 +15°C° 0 mm 2 mps 656 mmHg 62%
    06:00 +16°C° 0 mm 2 mps 656 mmHg 61%
    07:00 +17°C° 0 mm 2 mps 656 mmHg 53%
    08:00 +19°C° 0 mm 2 mps 657 mmHg 45%
    09:00 +21°C° 0 mm 2 mps 657 mmHg 37%
    10:00 +23°C° 0 mm 2 mps 657 mmHg 35%
    11:00 +24°C° 0 mm 3 mps 657 mmHg 32%
    12:00 +25°C° 0 mm 3 mps 657 mmHg 29%
    13:00 +25°C° 0 mm 3 mps 657 mmHg 28%
    14:00 +26°C° 0 mm 3 mps 657 mmHg 27%
    15:00 +26°C° 0 mm 4 mps 657 mmHg 26%
    16:00 +25°C° 0 mm 3 mps 656 mmHg 28%
    17:00 +25°C° 0 mm 3 mps 656 mmHg 31%
    18:00 +24°C° 0 mm 2 mps 656 mmHg 34%
    19:00 +21°C° 0 mm 2 mps 656 mmHg 42%
    20:00 +18°C° 0 mm 2 mps 656 mmHg 49%
    21:00 +16°C° 0 mm 2 mps 655 mmHg 57%
    22:00 +15°C° 0 mm 2 mps 655 mmHg 60%
    23:00 +15°C° 0 mm 2 mps 655 mmHg 63%

    29 May, Wednesday

    Time Temperature Precipitation Wind Pressure Humidity
    00:00 +14°C° 0 mm 3 mps 655 mmHg 65%
    01:00 +14°C° 0 mm 2 mps 655 mmHg 66%
    02:00 +14°C° 0 mm 2 mps 655 mmHg 66%
    03:00 +14°C° 0 mm 2 mps 655 mmHg 66%
    04:00 +15°C° 0 mm 2 mps 655 mmHg 63%
    05:00 +15°C° 0 mm 2 mps 655 mmHg 60%
    06:00 +16°C° 0 mm 2 mps 656 mmHg 56%
    07:00 +18°C° 0 mm 2 mps 656 mmHg 50%
    08:00 +20°C° 0 mm 2 mps 657 mmHg 44%
    09:00 +23°C° 0 mm 1 mps 657 mmHg 37%
    10:00 +24°C° 0.1 mm 2 mps 657 mmHg 36%
    11:00 +25°C° 0.1 mm 2 mps 657 mmHg 34%
    12:00 +26°C° 0.1 mm 3 mps 657 mmHg 32%
    13:00 +26°C° 0.3 mm 3 mps 656 mmHg 32%
    14:00 +26°C° 0.3 mm 3 mps 656 mmHg 31%
    15:00 +27°C° 0.3 mm 3 mps 656 mmHg 31%
    16:00 +26°C° 0.2 mm 3 mps 656 mmHg 34%
    17:00 +25°C° 0.2 mm 3 mps 655 mmHg 37%
    18:00 +25°C° 0.2 mm 2 mps 655 mmHg 40%
    19:00 +21°C° 0.1 mm 2 mps 655 mmHg 48%
    20:00 +19°C° 0.1 mm 2 mps 655 mmHg 56%
    21:00 +17°C° 0.1 mm 2 mps 655 mmHg 64%
    22:00 +16°C° 0 mm 2 mps 655 mmHg 66%
    23:00 +16°C° 0 mm 3 mps 654 mmHg 69%

    30 May, Thursday

    Time Temperature Precipitation Wind Pressure Humidity
    00:00 +14°C° 0 mm 3 mps 654 mmHg 72%
    01:00 +14°C° 0 mm 3 mps 654 mmHg 69%
    02:00 +14°C° 0 mm 3 mps 654 mmHg 67%
    03:00 +14°C° 0 mm 2 mps 654 mmHg 64%
    04:00 +15°C° 0 mm 2 mps 654 mmHg 60%
    05:00 +16°C° 0 mm 2 mps 655 mmHg 56%
    06:00 +17°C° 0 mm 2 mps 655 mmHg 52%
    07:00 +19°C° 0 mm 2 mps 655 mmHg 46%
    08:00 +21°C° 0 mm 2 mps 656 mmHg 41%
    09:00 +24°C° 0 mm 1 mps 656 mmHg 35%
    10:00 +25°C° 0 mm 2 mps 656 mmHg 33%
    11:00 +26°C° 0 mm 2 mps 656 mmHg 32%
    12:00 +27°C° 0 mm 3 mps 655 mmHg 30%
    13:00 +27°C° 0 mm 3 mps 655 mmHg 29%
    14:00 +27°C° 0 mm 3 mps 655 mmHg 28%
    15:00 +28°C° 0 mm 3 mps 655 mmHg 28%
    16:00 +27°C° 0.1 mm 3 mps 655 mmHg 31%
    17:00 +26°C° 0.1 mm 3 mps 654 mmHg 35%
    18:00 +26°C° 0.1 mm 2 mps 654 mmHg 38%
    19:00 +23°C° 0 mm 2 mps 654 mmHg 45%
    20:00 +20°C° 0 mm 2 mps 654 mmHg 52%
    21:00 +17°C° 0 mm 2 mps 653 mmHg 58%
    22:00 +17°C° 0 mm 2 mps 653 mmHg 61%
    23:00 +16°C° 0 mm 3 mps 653 mmHg 63%
    Show more